| time (UTC) | temp C | wind direction | speed KPH | gust KPH | rain 1hr cm | rain 24hr cm | rain mn cm | humidity % | barometer mb |
| 20260831114418 | 29 | 146 | 6.4 | 9.7 | 0.00 | 0.00 | 0.00 | 84 | 1012.0 |
| 20260831113416 | 29 | 178 | 6.4 | 9.7 | 0.00 | 0.00 | 0.00 | 83 | 1012.0 |
| 20260831112436 | 29 | 144 | 9.7 | 14.5 | 0.00 | 0.00 | 0.00 | 83 | 1012.0 |
| 20260831111416 | 29 | 155 | 4.8 | 6.4 | 0.00 | 0.00 | 0.00 | 83 | 1012.0 |
| 20260831110417 | 29 | 147 | 8.0 | 9.7 | 0.00 | 0.00 | 0.00 | 82 | 1012.0 |
| 20260831105416 | 29 | 165 | 6.4 | 8.0 | 0.00 | 0.00 | 0.00 | 82 | 1011.9 |
| 20260831104417 | 30 | 165 | 6.4 | 8.0 | 0.00 | 0.00 | 0.00 | 81 | 1011.9 |
| 20260831103416 | 30 | 153 | 4.8 | 4.8 | 0.00 | 0.00 | 0.00 | 80 | 1012.0 |
| 20260831102416 | 30 | 140 | 1.6 | 4.8 | 0.00 | 0.00 | 0.00 | 80 | 1012.0 |
| 20260831101416 | 30 | 81 | 1.6 | 3.2 | 0.00 | 0.00 | 0.00 | 79 | 1011.8 |
| 20260831100416 | 30 | 0.0 | 0.0 | 0.00 | 0.00 | 0.00 | 80 | 1011.7 | |
| 20260831095416 | 30 | 87 | 0.0 | 1.6 | 0.00 | 0.00 | 0.00 | 80 | 1011.7 |
| 20260831094436 | 30 | 0.0 | 0.0 | 0.00 | 0.00 | 0.00 | 80 | 1011.7 | |
| 20260831093416 | 30 | 0.0 | 0.0 | 0.00 | 0.00 | 0.00 | 80 | 1011.6 | |
| 20260831092417 | 30 | 0.0 | 0.0 | 0.00 | 0.00 | 0.00 | 80 | 1011.6 | |
| 20260831091417 | 30 | 0.0 | 0.0 | 0.00 | 0.00 | 0.00 | 80 | 1011.6 | |
| 20260831090417 | 30 | 0.0 | 0.0 | 0.00 | 0.00 | 0.00 | 80 | 1011.7 | |
| 20260831085416 | 30 | 0.0 | 0.0 | 0.00 | 0.00 | 0.00 | 80 | 1011.8 | |
| 20260831084416 | 30 | 0.0 | 0.0 | 0.00 | 0.00 | 0.00 | 80 | 1011.7 | |
| 20260831083436 | 30 | 0.0 | 0.0 | 0.00 | 0.00 | 0.00 | 80 | 1011.8 | |
| 20260831082416 | 30 | 0.0 | 0.0 | 0.00 | 0.00 | 0.00 | 80 | 1011.8 | |
| 20260831081416 | 30 | 0.0 | 0.0 | 0.00 | 0.00 | 0.00 | 81 | 1011.8 | |
| 20260831080416 | 30 | 0.0 | 0.0 | 0.00 | 0.00 | 0.00 | 80 | 1011.9 | |
| 20260831075416 | 30 | 0.0 | 0.0 | 0.00 | 0.00 | 0.00 | 81 | 1012.0 | |
| 20260831074458 | 30 | 301 | 3.2 | 4.8 | 0.00 | 0.00 | 0.00 | 80 | 1011.9 |
| 20260831073416 | 30 | 285 | 1.6 | 1.6 | 0.00 | 0.00 | 0.00 | 80 | 1011.9 |
| 20260831072416 | 30 | 305 | 1.6 | 3.2 | 0.00 | 0.00 | 0.00 | 80 | 1012.0 |
| 20260831071436 | 30 | 323 | 1.6 | 1.6 | 0.00 | 0.00 | 0.00 | 80 | 1012.1 |
| 20260831070416 | 30 | 328 | 3.2 | 4.8 | 0.00 | 0.00 | 0.00 | 80 | 1012.2 |
| 20260831065416 | 31 | 279 | 3.2 | 3.2 | 0.00 | 0.00 | 0.00 | 80 | 1012.2 |
| 20260831064416 | 31 | 298 | 6.4 | 6.4 | 0.00 | 0.00 | 0.00 | 80 | 1012.1 |
| 20260831063416 | 31 | 305 | 3.2 | 8.0 | 0.00 | 0.00 | 0.00 | 80 | 1012.2 |
| 20260831062416 | 31 | 299 | 3.2 | 6.4 | 0.00 | 0.00 | 0.00 | 79 | 1012.2 |
| 20260831061436 | 31 | 301 | 3.2 | 3.2 | 0.00 | 0.00 | 0.00 | 78 | 1012.2 |
| 20260831060417 | 31 | 243 | 3.2 | 4.8 | 0.00 | 0.00 | 0.00 | 78 | 1012.2 |
| 20260831055416 | 31 | 246 | 3.2 | 6.4 | 0.00 | 0.00 | 0.00 | 77 | 1012.2 |
| 20260831054417 | 31 | 296 | 4.8 | 6.4 | 0.00 | 0.00 | 0.00 | 77 | 1012.4 |
| 20260831053416 | 31 | 243 | 1.6 | 4.8 | 0.00 | 0.00 | 0.00 | 77 | 1012.4 |
| 20260831052416 | 31 | 309 | 1.6 | 4.8 | 0.00 | 0.00 | 0.00 | 76 | 1012.5 |
| 20260831051416 | 31 | 275 | 3.2 | 4.8 | 0.00 | 0.00 | 0.00 | 76 | 1012.5 |
| 20260831050436 | 31 | 296 | 4.8 | 4.8 | 0.00 | 0.00 | 0.00 | 76 | 1012.6 |
| 20260831045416 | 31 | 253 | 0.0 | 1.6 | 0.00 | 0.00 | 0.00 | 75 | 1012.7 |
| 20260831044416 | 31 | 296 | 6.4 | 9.7 | 0.00 | 0.00 | 0.00 | 75 | 1012.6 |
| 20260831043416 | 31 | 301 | 6.4 | 8.0 | 0.00 | 0.00 | 0.00 | 74 | 1012.6 |
| 20260831042416 | 31 | 293 | 8.0 | 9.7 | 0.00 | 0.00 | 0.00 | 74 | 1012.4 |
| 20260831041516 | 32 | 296 | 6.4 | 8.0 | 0.00 | 0.00 | 0.00 | 72 | 1012.5 |
| 20260831040416 | 32 | 288 | 6.4 | 9.7 | 0.00 | 0.00 | 0.00 | 71 | 1012.2 |
| 20260831035416 | 32 | 296 | 11.3 | 12.9 | 0.00 | 0.00 | 0.00 | 69 | 1012.1 |
| 20260831034417 | 32 | 284 | 9.7 | 16.1 | 0.00 | 0.00 | 0.00 | 67 | 1011.9 |
| 20260831033417 | 33 | 294 | 9.7 | 14.5 | 0.00 | 0.00 | 0.00 | 65 | 1011.6 |
| 20260831032416 | 33 | 281 | 6.4 | 9.7 | 0.00 | 0.00 | 0.00 | 64 | 1011.4 |
| 20260831031416 | 33 | 255 | 4.8 | 11.3 | 0.00 | 0.00 | 0.00 | 62 | 1011.0 |
| 20260831030416 | 33 | 231 | 17.7 | 19.3 | 0.00 | 0.00 | 0.00 | 62 | 1010.9 |
| 20260831025416 | 33 | 254 | 14.5 | 19.3 | 0.00 | 0.00 | 0.00 | 61 | 1010.7 |
| 20260831024417 | 34 | 249 | 12.9 | 16.1 | 0.00 | 0.00 | 0.00 | 59 | 1010.5 |
| 20260831023417 | 35 | 264 | 6.4 | 9.7 | 0.00 | 0.00 | 0.00 | 55 | 1010.3 |
| 20260831022416 | 36 | 255 | 8.0 | 17.7 | 0.00 | 0.00 | 0.00 | 52 | 1010.3 |
| 20260831021436 | 36 | 252 | 6.4 | 9.7 | 0.00 | 0.00 | 0.00 | 49 | 1010.0 |
| 20260831020416 | 36 | 247 | 6.4 | 11.3 | 0.00 | 0.00 | 0.00 | 47 | 1009.9 |
| 20260831015416 | 36 | 236 | 6.4 | 11.3 | 0.00 | 0.00 | 0.00 | 47 | 1009.8 |
| 20260831014436 | 36 | 235 | 6.4 | 8.0 | 0.00 | 0.00 | 0.00 | 47 | 1009.8 |
| 20260831013416 | 37 | 217 | 9.7 | 14.5 | 0.00 | 0.00 | 0.00 | 46 | 1009.7 |
| 20260831012416 | 37 | 249 | 6.4 | 11.3 | 0.00 | 0.00 | 0.00 | 46 | 1009.8 |
| 20260831011416 | 37 | 225 | 4.8 | 6.4 | 0.00 | 0.00 | 0.00 | 45 | 1009.9 |
| 20260831010436 | 37 | 238 | 4.8 | 8.0 | 0.00 | 0.00 | 0.00 | 45 | 1009.8 |
| 20260831005436 | 38 | 236 | 11.3 | 12.9 | 0.00 | 0.00 | 0.00 | 44 | 1009.8 |
| 20260831004416 | 38 | 315 | 4.8 | 8.0 | 0.00 | 0.00 | 0.00 | 43 | 1009.7 |
| 20260831003416 | 38 | 283 | 6.4 | 8.0 | 0.00 | 0.00 | 0.00 | 43 | 1009.7 |
| 20260831002417 | 38 | 279 | 6.4 | 8.0 | 0.00 | 0.00 | 0.00 | 43 | 1009.6 |
| 20260831001437 | 37 | 204 | 1.6 | 3.2 | 0.00 | 0.00 | 0.00 | 45 | 1009.4 |
| 20260831000436 | 38 | 2 | 4.8 | 6.4 | 0.00 | 0.00 | 0.00 | 44 | 1009.3 |
| 20260830235416 | 37 | 131 | 1.6 | 3.2 | 0.00 | 0.00 | 0.00 | 44 | 1009.3 |
| 20260830234416 | 38 | 349 | 1.6 | 8.0 | 0.00 | 0.00 | 0.00 | 44 | 1009.1 |
| 20260830233416 | 37 | 0.0 | 1.6 | 0.00 | 0.00 | 0.00 | 44 | 1009.1 | |
| 20260830232417 | 38 | 323 | 8.0 | 11.3 | 0.00 | 0.00 | 0.00 | 44 | 1009.1 |
| 20260830231416 | 37 | 71 | 3.2 | 3.2 | 0.00 | 0.00 | 0.00 | 45 | 1009.2 |
| 20260830230416 | 37 | 0.0 | 0.0 | 0.00 | 0.00 | 0.00 | 44 | 1009.2 | |
| 20260830225416 | 38 | 15 | 0.0 | 4.8 | 0.00 | 0.00 | 0.00 | 43 | 1009.5 |
| 20260830224416 | 37 | 284 | 4.8 | 4.8 | 0.00 | 0.00 | 0.00 | 44 | 1009.6 |
| 20260830223416 | 37 | 290 | 4.8 | 8.0 | 0.00 | 0.00 | 0.00 | 45 | 1009.9 |
| 20260830222416 | 37 | 29 | 3.2 | 6.4 | 0.00 | 0.00 | 0.00 | 46 | 1010.0 |
| 20260830221416 | 37 | 339 | 9.7 | 12.9 | 0.00 | 0.00 | 0.00 | 45 | 1010.3 |
| 20260830220437 | 38 | 0.0 | 1.6 | 0.00 | 0.00 | 0.00 | 43 | 1010.5 | |
| 20260830215416 | 37 | 0.0 | 0.0 | 0.00 | 0.00 | 0.00 | 44 | 1010.7 | |
| 20260830214416 | 37 | 138 | 4.8 | 6.4 | 0.00 | 0.00 | 0.00 | 44 | 1010.9 |
| 20260830213417 | 37 | 0.0 | 0.0 | 0.00 | 0.00 | 0.00 | 47 | 1011.1 | |
| 20260830212416 | 37 | 27 | 1.6 | 3.2 | 0.00 | 0.00 | 0.00 | 46 | 1011.2 |
| 20260830211416 | 37 | 99 | 3.2 | 4.8 | 0.00 | 0.00 | 0.00 | 46 | 1011.4 |
| 20260830210436 | 37 | 115 | 11.3 | 12.9 | 0.00 | 0.00 | 0.00 | 45 | 1011.7 |
| 20260830205436 | 37 | 323 | 4.8 | 12.9 | 0.00 | 0.00 | 0.00 | 43 | 1011.7 |
| 20260830204417 | 38 | 66 | 1.6 | 6.4 | 0.00 | 0.00 | 0.00 | 43 | 1012.2 |
| 20260830203416 | 38 | 318 | 3.2 | 4.8 | 0.00 | 0.00 | 0.00 | 44 | 1012.3 |
| 20260830202417 | 37 | 93 | 3.2 | 3.2 | 0.00 | 0.00 | 0.00 | 46 | 1012.3 |
| 20260830201436 | 37 | 57 | 4.8 | 11.3 | 0.00 | 0.00 | 0.00 | 46 | 1012.5 |
| 20260830200416 | 36 | 108 | 8.0 | 11.3 | 0.00 | 0.00 | 0.00 | 47 | 1012.7 |
| 20260830195417 | 36 | 14 | 3.2 | 6.4 | 0.00 | 0.00 | 0.00 | 49 | 1012.8 |
| 20260830194517 | 35 | 60 | 4.8 | 9.7 | 0.00 | 0.00 | 0.00 | 51 | 1013.1 |
| 20260830193416 | 35 | 29 | 4.8 | 6.4 | 0.00 | 0.00 | 0.00 | 52 | 1013.2 |
| 20260830192416 | 34 | 353 | 3.2 | 4.8 | 0.00 | 0.00 | 0.00 | 52 | 1013.3 |
| 20260830191416 | 34 | 4 | 3.2 | 6.4 | 0.00 | 0.00 | 0.00 | 53 | 1013.5 |
| 20260830190416 | 33 | 64 | 3.2 | 4.8 | 0.00 | 0.00 | 0.00 | 54 | 1013.6 |
| 20260830185437 | 33 | 11 | 3.2 | 3.2 | 0.00 | 0.00 | 0.00 | 54 | 1013.8 |
| 20260830184417 | 33 | 95 | 6.4 | 8.0 | 0.00 | 0.00 | 0.00 | 55 | 1014.0 |
| 20260830183436 | 32 | 73 | 4.8 | 8.0 | 0.00 | 0.00 | 0.00 | 57 | 1014.0 |
| 20260830182416 | 32 | 77 | 9.7 | 16.1 | 0.00 | 0.00 | 0.00 | 57 | 1014.1 |
| 20260830181416 | 32 | 68 | 14.5 | 20.9 | 0.00 | 0.00 | 0.00 | 57 | 1014.3 |
| 20260830180416 | 31 | 83 | 9.7 | 12.9 | 0.00 | 0.00 | 0.00 | 58 | 1014.3 |
| 20260830175436 | 31 | 78 | 9.7 | 14.5 | 0.00 | 0.00 | 0.00 | 59 | 1014.5 |
| 20260830174416 | 31 | 67 | 8.0 | 11.3 | 0.00 | 0.00 | 0.00 | 60 | 1014.5 |
| 20260830173416 | 31 | 75 | 14.5 | 20.9 | 0.00 | 0.00 | 0.00 | 60 | 1014.5 |
| 20260830172416 | 31 | 76 | 14.5 | 20.9 | 0.00 | 0.00 | 0.00 | 61 | 1014.5 |
| 20260830171417 | 31 | 64 | 11.3 | 20.9 | 0.00 | 0.00 | 0.00 | 61 | 1014.7 |
| 20260830170416 | 30 | 75 | 11.3 | 19.3 | 0.00 | 0.00 | 0.00 | 63 | 1014.7 |
| 20260830165416 | 30 | 84 | 11.3 | 16.1 | 0.00 | 0.00 | 0.00 | 64 | 1014.7 |
| 20260830164417 | 30 | 79 | 8.0 | 19.3 | 0.00 | 0.00 | 0.00 | 66 | 1014.8 |
| 20260830163416 | 29 | 71 | 9.7 | 16.1 | 0.00 | 0.00 | 0.00 | 67 | 1015.0 |
| 20260830162417 | 29 | 73 | 12.9 | 24.1 | 0.00 | 0.00 | 0.00 | 67 | 1014.9 |
| 20260830161416 | 28 | 69 | 12.9 | 14.5 | 0.00 | 0.00 | 0.00 | 70 | 1015.0 |
| 20260830160416 | 28 | 69 | 17.7 | 20.9 | 0.00 | 0.00 | 0.00 | 71 | 1015.0 |
| 20260830155416 | 27 | 64 | 16.1 | 20.9 | 0.00 | 0.00 | 0.00 | 74 | 1014.7 |
| 20260830154416 | 27 | 70 | 9.7 | 16.1 | 0.00 | 0.00 | 0.00 | 76 | 1014.8 |
| 20260830153416 | 27 | 63 | 9.7 | 19.3 | 0.00 | 0.00 | 0.00 | 77 | 1014.8 |
| 20260830152416 | 27 | 72 | 8.0 | 12.9 | 0.00 | 0.00 | 0.00 | 76 | 1014.9 |
| 20260830151416 | 27 | 64 | 4.8 | 11.3 | 0.00 | 0.00 | 0.00 | 77 | 1014.7 |
| 20260830150416 | 27 | 68 | 3.2 | 8.0 | 0.00 | 0.00 | 0.00 | 78 | 1014.7 |
| 20260830145437 | 26 | 66 | 8.0 | 12.9 | 0.00 | 0.00 | 0.00 | 79 | 1014.7 |
| 20260830144416 | 26 | 69 | 3.2 | 4.8 | 0.00 | 0.00 | 0.00 | 79 | 1014.6 |
| 20260830143416 | 26 | 71 | 6.4 | 8.0 | 0.00 | 0.00 | 0.00 | 78 | 1014.5 |
| 20260830142416 | 26 | 42 | 6.4 | 11.3 | 0.00 | 0.00 | 0.00 | 78 | 1014.3 |
| 20260830141436 | 26 | 46 | 4.8 | 11.3 | 0.00 | 0.00 | 0.00 | 77 | 1014.3 |
| 20260830140416 | 27 | 61 | 4.8 | 8.0 | 0.00 | 0.00 | 0.00 | 76 | 1014.3 |
| 20260830135416 | 27 | 73 | 9.7 | 12.9 | 0.00 | 0.00 | 0.00 | 74 | 1014.3 |
| 20260830134417 | 26 | 77 | 8.0 | 9.7 | 0.00 | 0.00 | 0.00 | 75 | 1013.9 |
| 20260830133416 | 26 | 139 | 6.4 | 11.3 | 0.00 | 0.00 | 0.00 | 75 | 1013.7 |
| 20260830132436 | 26 | 136 | 9.7 | 14.5 | 0.00 | 0.00 | 0.00 | 76 | 1013.5 |
| 20260830131436 | 26 | 115 | 12.9 | 14.5 | 0.00 | 0.00 | 0.00 | 77 | 1013.5 |
| 20260830130416 | 26 | 149 | 11.3 | 20.9 | 0.00 | 0.00 | 0.00 | 76 | 1013.4 |
| 20260830125416 | 26 | 123 | 11.3 | 16.1 | 0.00 | 0.00 | 0.00 | 75 | 1013.6 |
| 20260830124436 | 27 | 125 | 8.0 | 11.3 | 0.00 | 0.00 | 0.00 | 73 | 1013.7 |
| 20260830123416 | 27 | 130 | 14.5 | 17.7 | 0.00 | 0.00 | 0.00 | 72 | 1013.8 |
| 20260830122416 | 27 | 148 | 9.7 | 14.5 | 0.00 | 0.00 | 0.00 | 70 | 1013.9 |
| 20260830121416 | 28 | 127 | 9.7 | 11.3 | 0.00 | 0.00 | 0.00 | 67 | 1013.9 |
| 20260830120246 | 27 | 150 | 4.8 | 11.3 | 0.00 | 0.00 | 0.00 | 67 | 1013.6 |
| 20260830115246 | 27 | 159 | 4.8 | 8.0 | 0.00 | 0.00 | 0.00 | 69 | 1013.7 |